TimeEDT,TemperatureF,Dew PointF,Humidity,Sea Level PressureIn,VisibilityMPH,Wind Direction,Wind SpeedMPH,Gust SpeedMPH,PrecipitationIn,Events,Conditions,WindDirDegrees,DateUTC
12:47 AM,64.0,59.0,84,30.13,10.0,South,11.5,-,0.00,,Overcast,180,2013-08-08 04:47:00
12:54 AM,64.0,59.0,84,30.12,10.0,South,12.7,-,0.00,,Overcast,180,2013-08-08 04:54:00
1:54 AM,63.0,60.1,90,30.11,10.0,SSW,11.5,-,N/A,,Overcast,200,2013-08-08 05:54:00
2:50 AM,64.4,60.8,88,30.11,10.0,South,11.5,-,N/A,,Overcast,190,2013-08-08 06:50:00
2:54 AM,64.0,60.1,87,30.10,10.0,SSW,12.7,-,N/A,,Overcast,200,2013-08-08 06:54:00
3:54 AM,64.0,61.0,90,30.09,10.0,SSW,10.4,-,N/A,,Overcast,200,2013-08-08 07:54:00
4:14 AM,64.0,61.0,90,30.10,10.0,South,11.5,-,N/A,,Overcast,190,2013-08-08 08:14:00
4:44 AM,64.0,62.1,93,30.09,6.0,SSW,15.0,-,0.06,Rain,Light Rain,200,2013-08-08 08:44:00
4:54 AM,64.0,62.1,93,30.08,10.0,South,11.5,-,0.06,Rain,Light Rain,190,2013-08-08 08:54:00
5:33 AM,64.0,63.0,96,30.09,10.0,South,9.2,-,0.02,Rain,Light Rain,190,2013-08-08 09:33:00
5:54 AM,64.0,63.0,96,30.08,8.0,South,11.5,-,0.02,,Overcast,190,2013-08-08 09:54:00
6:35 AM,64.0,63.0,96,30.08,6.0,SSW,12.7,-,N/A,,Overcast,200,2013-08-08 10:35:00
6:54 AM,64.0,64.0,100,30.08,5.0,SSW,11.5,-,0.00,Rain,Light Rain,200,2013-08-08 10:54:00
7:54 AM,64.9,64.9,100,30.09,3.0,SSW,11.5,-,0.01,,Overcast,210,2013-08-08 11:54:00
8:54 AM,66.9,66.0,97,30.09,3.0,SW,11.5,-,N/A,,Overcast,220,2013-08-08 12:54:00
9:03 AM,66.9,66.0,97,30.10,10.0,SW,11.5,-,N/A,,Overcast,220,2013-08-08 13:03:00
9:54 AM,69.1,66.9,93,30.09,10.0,SW,11.5,-,N/A,,Overcast,220,2013-08-08 13:54:00
10:54 AM,71.1,66.9,87,30.09,10.0,SW,12.7,-,N/A,,Overcast,220,2013-08-08 14:54:00
11:39 AM,70.0,66.9,90,30.09,10.0,SSW,9.2,-,N/A,,Overcast,200,2013-08-08 15:39:00
11:54 AM,70.0,66.9,90,30.08,10.0,SSW,11.5,-,0.00,,Overcast,200,2013-08-08 15:54:00
12:01 PM,70.0,66.9,90,30.08,10.0,SSW,8.1,-,N/A,,Overcast,200,2013-08-08 16:01:00
12:51 PM,71.6,66.2,83,30.09,10.0,SSW,8.1,-,N/A,,Overcast,200,2013-08-08 16:51:00
12:54 PM,70.0,66.9,90,30.09,10.0,South,6.9,-,N/A,,Overcast,190,2013-08-08 16:54:00
1:01 PM,70.0,66.9,90,30.09,10.0,SSW,8.1,-,N/A,,Overcast,200,2013-08-08 17:01:00
1:54 PM,73.0,68.0,84,30.09,10.0,SSW,9.2,-,N/A,,Overcast,210,2013-08-08 17:54:00
2:54 PM,75.0,68.0,79,30.07,10.0,SW,13.8,-,N/A,,Overcast,220,2013-08-08 18:54:00
3:01 PM,75.0,68.0,79,30.08,10.0,SW,11.5,-,N/A,,Mostly Cloudy,220,2013-08-08 19:01:00
3:29 PM,77.0,66.9,71,30.07,10.0,SW,11.5,-,N/A,,Mostly Cloudy,220,2013-08-08 19:29:00
3:54 PM,77.0,66.9,71,30.07,10.0,SSW,9.2,-,N/A,,Mostly Cloudy,210,2013-08-08 19:54:00
4:02 PM,75.9,66.9,74,30.07,10.0,SSW,12.7,-,N/A,,Mostly Cloudy,210,2013-08-08 20:02:00
4:25 PM,75.9,68.0,76,30.07,10.0,South,11.5,-,N/A,,Mostly Cloudy,190,2013-08-08 20:25:00
4:47 PM,75.0,68.0,79,30.06,10.0,SSW,9.2,-,N/A,,Mostly Cloudy,200,2013-08-08 20:47:00
4:54 PM,75.0,68.0,79,30.05,10.0,SSW,8.1,-,N/A,,Mostly Cloudy,210,2013-08-08 20:54:00
5:04 PM,75.9,69.1,79,30.06,10.0,South,8.1,-,N/A,,Overcast,190,2013-08-08 21:04:00
5:16 PM,75.0,69.1,82,30.06,10.0,SSW,9.2,-,N/A,,Mostly Cloudy,200,2013-08-08 21:16:00
5:54 PM,75.9,68.0,76,30.04,10.0,SSW,8.1,-,N/A,,Partly Cloudy,200,2013-08-08 21:54:00
6:54 PM,75.0,69.1,82,30.05,10.0,SSW,10.4,-,N/A,,Mostly Cloudy,210,2013-08-08 22:54:00
7:32 PM,73.9,69.1,85,30.06,10.0,SSW,10.4,-,N/A,,Partly Cloudy,210,2013-08-08 23:32:00
7:54 PM,73.0,68.0,84,30.05,10.0,SSW,8.1,-,N/A,,Partly Cloudy,200,2013-08-08 23:54:00
8:54 PM,72.0,68.0,87,30.08,10.0,SW,8.1,-,N/A,,Mostly Cloudy,220,2013-08-09 00:54:00
9:54 PM,71.1,69.1,93,30.06,10.0,South,8.1,-,N/A,,Mostly Cloudy,190,2013-08-09 01:54:00
10:14 PM,71.1,69.1,93,30.08,10.0,South,8.1,-,N/A,,Overcast,190,2013-08-09 02:14:00
10:54 PM,71.1,69.1,93,30.06,10.0,SSW,11.5,-,N/A,,Overcast,200,2013-08-09 02:54:00
11:28 PM,71.1,68.0,90,30.06,10.0,SSW,12.7,-,N/A,,Mostly Cloudy,210,2013-08-09 03:28:00
11:52 PM,69.8,68.0,94,30.06,10.0,SSW,8.1,-,N/A,,Mostly Cloudy,210,2013-08-09 03:52:00
11:54 PM,70.0,68.0,93,30.05,10.0,SSW,10.4,-,N/A,,Overcast,200,2013-08-09 03:54:00